This is the latest recevied weather packets stored in our database for station/object CE4ERM-13. If no packets are shown the sender has not sent any weather packets the latest 1 day(s).
| Time | Temp. | Humidity | Pressure | Rain* | Wind** | Luminosity | Snow |
|---|---|---|---|---|---|---|---|
| 1778056603 | 18.89° C | 41% | 1019 hPa | - | - | - | - |
| 1778056009 | 18.89° C | 41% | 1017.8 hPa | - | - | - | - |
| 1778055552 | 18.89° C | 46% | 1015.9 hPa | - | - | - | - |
| 1778055402 | 18.89° C | 41% | 1016.4 hPa | - | - | - | - |
| 1778054952 | 19.44° C | 46% | 1015.1 hPa | - | - | - | - |
| 1778054802 | 18.89° C | 41% | 1015.1 hPa | - | - | - | - |
| 1778053751 | 19.44° C | 46% | 1014.5 hPa | - | - | - | - |
| 1778053601 | 19.44° C | 41% | 1016.6 hPa | - | - | - | - |
| 1778053150 | 19.44° C | 46% | 1016.1 hPa | - | - | - | - |
| 1778053000 | 19.44° C | 41% | 1012 hPa | - | - | - | - |
| 1778052550 | 20° C | 45% | 1017 hPa | - | - | - | - |
| 1778051950 | 20° C | 45% | 1015.5 hPa | - | - | - | - |
| 1778051800 | 19.44° C | 41% | 1016.6 hPa | - | - | - | - |
| 1778051200 | 19.44° C | 41% | 1019.6 hPa | - | - | - | - |
| 1778050000 | 20° C | 41% | 1017.4 hPa | - | - | - | - |
| 1778049400 | 20° C | 41% | 1015 hPa | - | - | - | - |
| 1778048949 | 21.11° C | 44% | 1017.5 hPa | - | - | - | - |
| 1778048349 | 21.11° C | 44% | 1016.2 hPa | - | - | - | - |
| 1778046548 | 21.67° C | 43% | 1018.6 hPa | - | - | - | - |
| 1778046399 | 20° C | 41% | 1016.7 hPa | - | - | - | - |
| 1778045799 | 20° C | 42% | 1017.8 hPa | - | - | - | - |
| 1778045347 | 22.22° C | 43% | 1016.1 hPa | - | - | - | - |
| 1778044747 | 22.22° C | 44% | 1016.6 hPa | - | - | - | - |
| 1778044599 | 20° C | 41% | 1017.7 hPa | - | - | - | - |
| 1778044031 | 20.56° C | 42% | 1019.7 hPa | - | - | - | - |
* Rain since midnight (hover to see other rain measurements)
** Current wind speed in m/s (hover to see current wind gust speed)